Regional Weather Roundup
Issued by NWS

Home | Current Version | Previous Version | Text Only | Print | Product List | Glossary On
Versions: 1 2 3 4 5 6 7 8 9 10 11 12 13 14 15 16 17 18 19 20 21 22 23 24 25 26 27 28 29 30 31 32 33 34 35 36 37 38 39 40 41 42 43 44 45 46 47 48 49 50
000
ASUS43 KLOT 130708
RWRIL

ILLINOIS REGIONAL WEATHER ROUNDUP
NATIONAL WEATHER SERVICE CHICAGO/ROMEOVILLE IL
100 AM CST SAT FEB 13 2016

NOTE: "FAIR" INDICATES FEW OR NO CLOUDS BELOW 12,000 FEET WITH NO
SIGNIFICANT WEATHER AND/OR OBSTRUCTIONS TO VISIBILITY.

* THESE STATIONS ARE NOT UNDER NWS QUALITY CONTROL. THEY ALSO MAY NOT
  REPORT WEATHER SUCH AS PRECIPITATION OR FOG.

ILZ001-002-007-009-015-016-024-130800-
NORTHWEST ILLINOIS

CITY           SKY/WX    TMP DP  RH WIND       PRES   REMARKS
MOLINE         CLEAR      8  -6  52 NW9       30.59R WCI  -5
STERLING*      CLEAR      9  -8  47 N9        30.53R WCI  -5
SAVANNA*       PTCLDY     7 -11  43 N9        30.58R WCI  -7
$$

ILZ003-004-008-010-011-017-018-130800-
NORTH CENTRAL ILLINOIS

CITY           SKY/WX    TMP DP  RH WIND       PRES   REMARKS
ROCKFORD       CLEAR      6 -11  45 N16       30.55R WCI -12
FREEPORT*      PTCLDY     4 -11  49 N10G16    30.55R WCI -11
ROCHELLE*      PTCLDY     6  -6  55 NW10      30.53R WCI  -8
DE KALB*       PTCLDY     5  -8  54 N12       30.50R WCI -11
$$

ILZ005-006-012>014-019>023-130800-
NORTHEAST ILLINOIS

CITY           SKY/WX    TMP DP  RH WIND       PRES   REMARKS
CHICAGO-OHARE  CLEAR      5 -11  47 N13G24    30.48R WCI -12
CHICAGO-MIDWAY PTCLDY     8 -10  43 NW20      30.49R WCI -11
AURORA         CLEAR      6  -8  52 N17       30.51R WCI -13
LANSING*       CLEAR      8  -8  48 NW9G18    30.48R WCI  -5
JOLIET*        PTCLDY     9  -7  48 N9        30.51R WCI  -5
WAUKEGAN       CLEAR      3 -11  52 NW10      30.47R WCI -12
DUPAGE AIRPORT CLEAR      5 -10  50 N15       30.49R WCI -13
KANKAKEE*      PTCLDY     9  -8  46 NW13G18   30.49R WCI  -6
WHEELING       CLEAR      5 -10  50 NW13      30.50R WCI -12
MORRIS*        PTCLDY     8  -9  47 N10G18    30.48R WCI  -7
ROMEOVILLE*    PTCLDY     6 -10  48 N16       30.50R WCI -12
NORTHERLY ISL    N/A      9  -5  53 NW13        N/A  WCI  -6
$$

LMZ740>746-130800-
SOUTHERN LAKE MICHIGAN

STATION/POSITION SKY/WX   TEMP    WIND        PRES    VSBY  WAVE
                          AIR SEA DIR/SP/G                  HT/PER
                          (F)     (DEG/KT/KT) (MB)    (MI)  (FT/S)
HARRISON CRIB              10     320/ 24/ 27   N/A
BURNHAM HARBOR              8     310/  9/ 19   N/A
CALUMET HARBOR                    300/ 13/ 17   N/A
BURNS HARBOR               15     340/ 20/ 24 1030.1R
MICHIGAN CITY              14     310/ 25/ 28   N/A
$$

ILZ025>027-034>036-040-047-049-050-058-095>099-130800-
WEST-CENTRAL ILLINOIS

CITY           SKY/WX    TMP DP  RH WIND       PRES   REMARKS
QUINCY         CLOUDY     8   0  69 NW10      30.58R WCI  -6
GALESBURG*     CLEAR      7  -2  67 NW8       30.58R WCI  -6
MACOMB*        CLEAR      9   1  68 N15       30.60R WCI  -7
JACKSONVILLE*  PTCLDY    14   4  67 NW10      30.58R WCI   1
PITTSFIELD*    PTCLDY    11   3  69 NW8       30.58S WCI   0
$$

ILZ028>032-037-038-041>044-048-051>054-059>061-130800-
CENTRAL ILLINOIS

CITY           SKY/WX    TMP DP  RH WIND       PRES   REMARKS
PONTIAC        PTCLDY    10  -2  57 N15       30.52R WCI  -6
BLOOMINGTON    PTCLDY     9   0  67 N9        30.50R WCI  -4
DECATUR        CLEAR     12   1  61 NW17G24   30.51R WCI  -5
PEORIA         CLEAR      9  -3  58 NW8       30.55R WCI  -3
LACON*         PTCLDY     9  -6  49 N9        30.54S WCI  -4
LINCOLN*       CLEAR     11   2  67 NW8       30.54R WCI  -1
SPRINGFIELD    CLEAR     12  -1  56 N12       30.56R WCI  -2
TAYLORVILLE    CLEAR     12   3  67 N16G22    30.55R WCI  -4
$$

ILZ033-039-045-046-055>057-062-063-130800-
EAST-CENTRAL ILLINOIS

CITY           SKY/WX    TMP DP  RH WIND       PRES   REMARKS
CHAMPAIGN      CLEAR     11   2  67 NW15      30.48R WCI  -5
RANTOUL*       PTCLDY    13   2  62 N12       30.48R WCI  -1
MATTOON        CLEAR     12   3  67 NW15      30.48R WCI  -4
PARIS*         CLEAR     13   5  70 NW13G21   30.48R WCI  -2
$$

ILZ079-100>102-130800-
SOUTHWEST ILLINOIS

CITY           SKY/WX    TMP DP  RH WIND       PRES   REMARKS
ALTON          PTCLDY    15   5  65 NW8       30.57R WCI   4
BELLEVILLE     PTCLDY    17   5  60 N9        30.55R WCI   5
CAHOKIA*       PTCLDY    18   3  52 N17G26    30.57R WCI   3
SPARTA*        PTCLDY    19   7  60 NW7       30.54R WCI   9
$$

ILZ064>066-069>071-074>076-080>082-084>086-088>090-092>094-130800-
SOUTH-CENTRAL ILLINOIS

CITY           SKY/WX    TMP DP  RH WIND       PRES   REMARKS
CARBONDALE     CLEAR     20   7  57 NW16G24   30.53R WCI   6
CAIRO*         CLEAR     24  15  67 N8        30.50S WCI  15
EFFINGHAM*     CLEAR     15   6  66 NW12G18   30.53R WCI   2
MARION         PTCLDY    21   7  53 N9G16     30.52S WCI  11
MT. VERNON     PTCLDY    18   1  49 N7        30.51S WCI   8
CENTRALIA*     PTCLDY    18   8  63 N16G24    30.52R WCI   3
SALEM*         CLEAR     18   7  63 NW14G21   30.52R WCI   4
METROPOLIS*    CLEAR     24  11  58 N12       30.50S WCI  12
$$

ILZ067-068-072-073-078-083-087-091-130800-
SOUTHEAST ILLINOIS

CITY           SKY/WX    TMP DP  RH WIND       PRES   REMARKS
LAWRENCEVILLE  CLEAR     16   5  62 N14       30.49R WCI   2
FLORA*         CLEAR     18   5  56 N16       30.52R WCI   3
FAIRFIELD*     CLEAR     19   7  59 N12G20    30.50R WCI   6
HARRISBURG*    CLEAR     21  10  62 N10G17    30.51R WCI  10
ROBINSON*      CLEAR     15   5  65 N13G20    30.50R WCI   1
CARMI*         PTCLDY    19   9  65 N13       30.50R WCI   6
$$

ABBREVIATIONS USED IN REMARKS
   TC - TEMPERATURE IN CELSIUS
  WCI - WIND CHILL INDEX
   HX - HEAT INDEX
  VSB - VISIBILITY
$$




USA.gov is the U.S. government's official web portal to all federal, state and local government web resources and services.